sat.trackr.live / text

‹ back to catalog

HYLAS 1

NORAD 37237 · 2010-065A

PAYLOAD ACTIVE UNKNOWN

§ Identity

Operator
Country
UK
Launch date
2010-11-26
Launch site
FRGUI
Launch vehicle
Mass (kg)
RCS (m²)
119.95

Purposes: comms

External: N2YO · Heavens-Above · Gunter

§ Orbital elements

Epoch: 2026-09-11T23:02:22.291872Z

Period
1,430.80 min
Inclination
5.8575°
Eccentricity
0.0003447
Mean motion
1.00642949 rev/d
Perigee alt
35,668.4 km
Apogee alt
35,697.4 km
Semi-major
42,061.0 km
B*
0.0000e+0
RAAN
71.9106°
Arg perigee
157.1996°
Mean anomaly
219.4801°
Rev number
776

§ Raw data

HYLAS 11 37237U 10065A   26254.95998023 -.00000370  00000+0  00000+0 0  99972 37237   5.8575  71.9106 0003447 157.1996 219.4801  1.00642949  7764

JSON: /api/v1/satellites/37237 · /tle

For live sub-satellite position, see the globe view (requires WebGL).

§ Visibility from observer

Set your observer location to see the next 7 days of passes ≥ 10°. The values pass through the URL so the page stays shareable.

No JS? Fill the form by hand. The geolocation button needs JavaScript.